Time,TemperatureF,DewpointF,PressureIn,WindDirection,WindDirectionDegrees,WindSpeedMPH,WindSpeedGustMPH,Humidity,HourlyPrecipIn,Conditions,Clouds,dailyrainin,SolarRadiationWatts/m^2,SoftwareType,DateUTC
2013-03-09 00:01:00,38.0,35.0,-100.00,NNE,32,0.0,3.0,90,0.00,,,0.00,0.000000,,2013-03-09 08:01:00,
2013-03-09 00:11:00,38.0,35.0,-100.00,NNE,32,0.0,3.0,90,0.00,,,0.00,0.000000,,2013-03-09 08:11:00,
2013-03-09 00:21:00,38.0,35.0,-100.00,NNE,32,0.0,3.0,90,0.00,,,0.00,0.000000,,2013-03-09 08:21:00,
2013-03-09 00:52:00,37.0,34.0,-100.00,SE,132,0.0,2.0,88,0.00,,,0.00,0.000000,,2013-03-09 08:52:00,
2013-03-09 01:01:00,37.0,34.0,-100.00,SE,132,0.0,2.0,88,0.00,,,0.00,0.000000,,2013-03-09 09:01:00,
2013-03-09 01:11:00,37.0,34.0,-100.00,SE,132,0.0,2.0,88,0.00,,,0.00,0.000000,,2013-03-09 09:11:00,
2013-03-09 01:21:00,37.0,34.0,-100.00,SE,132,0.0,2.0,88,0.00,,,0.00,0.000000,,2013-03-09 09:21:00,
2013-03-09 01:52:00,36.0,35.0,-100.00,NNW,346,0.0,3.0,98,0.00,,,0.00,0.000000,,2013-03-09 09:52:00,
2013-03-09 02:01:00,36.0,35.0,-100.00,NNW,346,0.0,3.0,98,0.00,,,0.00,0.000000,,2013-03-09 10:01:00,
2013-03-09 02:11:00,36.0,35.0,-100.00,NNW,346,0.0,3.0,98,0.00,,,0.00,0.000000,,2013-03-09 10:11:00,
2013-03-09 02:21:00,36.0,35.0,-100.00,NNW,346,0.0,3.0,98,0.00,,,0.00,0.000000,,2013-03-09 10:21:00,
2013-03-09 02:52:00,34.0,34.0,-100.00,North,11,0.0,3.0,100,0.00,,,0.00,0.000000,,2013-03-09 10:52:00,
2013-03-09 03:01:00,34.0,34.0,-100.00,North,11,0.0,3.0,100,0.00,,,0.00,0.000000,,2013-03-09 11:01:00,
2013-03-09 03:11:00,34.0,34.0,-100.00,North,11,0.0,3.0,100,0.00,,,0.00,0.000000,,2013-03-09 11:11:00,
2013-03-09 03:21:00,34.0,34.0,-100.00,North,11,0.0,3.0,100,0.00,,,0.00,0.000000,,2013-03-09 11:21:00,
2013-03-09 03:52:00,34.0,34.0,-100.00,NE,41,0.0,0.0,100,0.00,,,0.00,0.000000,,2013-03-09 11:52:00,
2013-03-09 04:01:00,34.0,34.0,-100.00,NE,41,0.0,0.0,100,0.00,,,0.00,0.000000,,2013-03-09 12:01:00,
2013-03-09 04:11:00,34.0,34.0,-100.00,NE,41,0.0,0.0,100,0.00,,,0.00,0.000000,,2013-03-09 12:11:00,
2013-03-09 04:21:00,34.0,34.0,-100.00,NE,41,0.0,0.0,100,0.00,,,0.00,0.000000,,2013-03-09 12:21:00,
2013-03-09 04:52:00,32.0,32.0,-100.00,NNE,30,0.0,2.0,100,0.00,,,0.00,0.000000,,2013-03-09 12:52:00,
2013-03-09 05:02:00,32.0,32.0,-100.00,NNE,30,0.0,2.0,100,0.00,,,0.00,0.000000,,2013-03-09 13:02:00,
2013-03-09 05:11:00,32.0,32.0,-100.00,NNE,30,0.0,2.0,100,0.00,,,0.00,0.000000,,2013-03-09 13:11:00,
2013-03-09 05:21:00,32.0,32.0,-100.00,NNE,30,0.0,2.0,100,0.00,,,0.00,0.000000,,2013-03-09 13:21:00,
2013-03-09 05:52:00,33.0,33.0,-100.00,NNW,345,0.0,2.0,100,0.00,,,0.00,0.000000,,2013-03-09 13:52:00,
2013-03-09 06:01:00,33.0,33.0,-100.00,NNW,345,0.0,2.0,100,0.00,,,0.00,0.000000,,2013-03-09 14:01:00,
2013-03-09 06:11:00,33.0,33.0,-100.00,NNW,345,0.0,2.0,100,0.00,,,0.00,0.000000,,2013-03-09 14:11:00,
2013-03-09 06:21:00,33.0,33.0,-100.00,NNW,345,0.0,2.0,100,0.00,,,0.00,0.000000,,2013-03-09 14:21:00,
2013-03-09 06:52:00,32.0,32.0,-100.00,NNE,26,0.0,0.0,100,0.00,,,0.00,0.000000,,2013-03-09 14:52:00,
2013-03-09 07:01:00,32.0,32.0,-100.00,NNE,26,0.0,0.0,100,0.00,,,0.00,0.000000,,2013-03-09 15:01:00,
2013-03-09 07:11:00,32.0,32.0,-100.00,NNE,26,0.0,0.0,100,0.00,,,0.00,0.000000,,2013-03-09 15:11:00,
2013-03-09 07:22:00,32.0,32.0,-100.00,NNE,26,0.0,0.0,100,0.00,,,0.00,0.000000,,2013-03-09 15:22:00,
2013-03-09 07:52:00,32.0,32.0,-100.00,NNE,21,0.0,0.0,100,0.00,,,0.00,16.000000,,2013-03-09 15:52:00,
2013-03-09 08:01:00,32.0,32.0,-100.00,NNE,21,0.0,0.0,100,0.00,,,0.00,16.000000,,2013-03-09 16:01:00,
2013-03-09 08:11:00,32.0,32.0,-100.00,NNE,21,0.0,0.0,100,0.00,,,0.00,16.000000,,2013-03-09 16:11:00,
2013-03-09 08:21:00,32.0,32.0,-100.00,NNE,21,0.0,0.0,100,0.00,,,0.00,16.000000,,2013-03-09 16:21:00,
2013-03-09 08:52:00,39.0,33.0,-100.00,ESE,105,0.0,2.0,78,0.00,,,0.00,175.000000,,2013-03-09 16:52:00,
2013-03-09 09:01:00,39.0,33.0,-100.00,ESE,105,0.0,2.0,78,0.00,,,0.00,175.000000,,2013-03-09 17:01:00,
2013-03-09 09:11:00,39.0,33.0,-100.00,ESE,105,0.0,2.0,78,0.00,,,0.00,175.000000,,2013-03-09 17:11:00,
2013-03-09 09:22:00,39.0,33.0,-100.00,ESE,105,0.0,2.0,78,0.00,,,0.00,175.000000,,2013-03-09 17:22:00,
2013-03-09 09:52:00,40.0,29.0,-100.00,ENE,65,5.0,6.0,64,0.00,,,0.00,235.000000,,2013-03-09 17:52:00,
2013-03-09 10:01:00,40.0,29.0,-100.00,ENE,65,5.0,6.0,64,0.00,,,0.00,235.000000,,2013-03-09 18:01:00,
2013-03-09 10:11:00,40.0,29.0,-100.00,ENE,65,5.0,6.0,64,0.00,,,0.00,235.000000,,2013-03-09 18:11:00,
2013-03-09 10:21:00,40.0,29.0,-100.00,ENE,65,5.0,6.0,64,0.00,,,0.00,235.000000,,2013-03-09 18:21:00,
2013-03-09 10:52:00,47.0,29.0,-100.00,SSE,157,1.0,6.0,50,0.00,,,0.00,558.000000,,2013-03-09 18:52:00,
2013-03-09 11:01:00,47.0,29.0,-100.00,SSE,157,1.0,6.0,50,0.00,,,0.00,558.000000,,2013-03-09 19:01:00,
2013-03-09 11:11:00,47.0,29.0,-100.00,SSE,157,1.0,6.0,50,0.00,,,0.00,558.000000,,2013-03-09 19:11:00,
2013-03-09 11:21:00,47.0,29.0,-100.00,SSE,157,1.0,6.0,50,0.00,,,0.00,558.000000,,2013-03-09 19:21:00,
2013-03-09 11:52:00,50.0,27.0,-100.00,East,81,1.0,5.0,40,0.00,,,0.00,685.000000,,2013-03-09 19:52:00,
2013-03-09 12:01:00,50.0,27.0,-100.00,East,81,1.0,5.0,40,0.00,,,0.00,685.000000,,2013-03-09 20:01:00,
2013-03-09 12:11:00,50.0,27.0,-100.00,East,81,1.0,5.0,40,0.00,,,0.00,685.000000,,2013-03-09 20:11:00,
2013-03-09 12:21:00,50.0,27.0,-100.00,East,81,1.0,5.0,40,0.00,,,0.00,685.000000,,2013-03-09 20:21:00,
2013-03-09 12:52:00,53.0,27.0,-100.00,ESE,113,3.0,7.0,36,0.00,,,0.00,718.000000,,2013-03-09 20:52:00,
2013-03-09 13:01:00,53.0,27.0,-100.00,ESE,113,3.0,7.0,36,0.00,,,0.00,718.000000,,2013-03-09 21:01:00,
2013-03-09 13:11:00,53.0,27.0,-100.00,ESE,113,3.0,7.0,36,0.00,,,0.00,718.000000,,2013-03-09 21:11:00,
2013-03-09 13:21:00,53.0,27.0,-100.00,ESE,113,3.0,7.0,36,0.00,,,0.00,718.000000,,2013-03-09 21:21:00,
2013-03-09 13:52:00,55.0,31.0,-100.00,ENE,73,4.0,7.0,39,0.00,,,0.00,715.000000,,2013-03-09 21:52:00,
2013-03-09 14:01:00,55.0,31.0,-100.00,ENE,73,4.0,7.0,39,0.00,,,0.00,715.000000,,2013-03-09 22:01:00,
2013-03-09 14:11:00,55.0,31.0,-100.00,ENE,73,4.0,7.0,39,0.00,,,0.00,715.000000,,2013-03-09 22:11:00,
2013-03-09 14:21:00,55.0,31.0,-100.00,ENE,73,4.0,7.0,39,0.00,,,0.00,715.000000,,2013-03-09 22:21:00,
2013-03-09 14:52:00,61.0,27.0,-100.00,SSW,210,0.0,7.0,27,0.00,,,0.00,641.000000,,2013-03-09 22:52:00,
2013-03-09 15:01:00,61.0,27.0,-100.00,SSW,210,0.0,7.0,27,0.00,,,0.00,641.000000,,2013-03-09 23:01:00,
2013-03-09 15:11:00,61.0,27.0,-100.00,SSW,210,0.0,7.0,27,0.00,,,0.00,641.000000,,2013-03-09 23:11:00,
2013-03-09 15:21:00,61.0,27.0,-100.00,SSW,210,0.0,7.0,27,0.00,,,0.00,641.000000,,2013-03-09 23:21:00,
2013-03-09 15:52:00,63.0,26.0,-100.00,WSW,249,0.0,4.0,24,0.00,,,0.00,514.000000,,2013-03-09 23:52:00,
2013-03-09 16:01:00,63.0,26.0,-100.00,WSW,249,0.0,4.0,24,0.00,,,0.00,514.000000,,2013-03-10 00:01:00,
2013-03-09 16:11:00,63.0,26.0,-100.00,WSW,249,0.0,4.0,24,0.00,,,0.00,514.000000,,2013-03-10 00:11:00,
2013-03-09 16:22:00,63.0,26.0,-100.00,WSW,249,0.0,4.0,24,0.00,,,0.00,514.000000,,2013-03-10 00:22:00,
2013-03-09 16:52:00,60.0,24.0,-100.00,ENE,65,3.0,5.0,25,0.00,,,0.00,344.000000,,2013-03-10 00:52:00,
2013-03-09 17:01:00,60.0,24.0,-100.00,ENE,65,3.0,5.0,25,0.00,,,0.00,344.000000,,2013-03-10 01:01:00,
2013-03-09 17:11:00,60.0,24.0,-100.00,ENE,65,3.0,5.0,25,0.00,,,0.00,344.000000,,2013-03-10 01:11:00,
2013-03-09 17:21:00,60.0,24.0,-100.00,ENE,65,3.0,5.0,25,0.00,,,0.00,344.000000,,2013-03-10 01:21:00,
2013-03-09 17:52:00,55.0,22.0,-100.00,SSW,208,3.0,5.0,27,0.00,,,-99.99,129.000000,,2013-03-10 01:52:00,
2013-03-09 18:01:00,55.0,22.0,-100.00,SSW,208,3.0,5.0,27,0.00,,,-99.99,129.000000,,2013-03-10 02:01:00,
2013-03-09 18:11:00,55.0,22.0,-100.00,SSW,208,3.0,5.0,27,0.00,,,-99.99,129.000000,,2013-03-10 02:11:00,
2013-03-09 18:22:00,55.0,22.0,-100.00,SSW,208,3.0,5.0,27,0.00,,,-99.99,129.000000,,2013-03-10 02:22:00,
2013-03-09 18:52:00,52.0,24.0,-100.00,SSW,195,2.0,7.0,33,0.00,,,-99.99,6.000000,,2013-03-10 02:52:00,
2013-03-09 19:01:00,52.0,24.0,-100.00,SSW,195,2.0,7.0,33,0.00,,,-99.99,6.000000,,2013-03-10 03:01:00,
2013-03-09 19:11:00,52.0,24.0,-100.00,SSW,195,2.0,7.0,33,0.00,,,-99.99,6.000000,,2013-03-10 03:11:00,
2013-03-09 19:21:00,52.0,24.0,-100.00,SSW,195,2.0,7.0,33,0.00,,,-99.99,6.000000,,2013-03-10 03:21:00,
2013-03-09 19:52:00,51.0,22.0,-100.00,SSW,202,4.0,6.0,32,0.00,,,0.00,0.000000,,2013-03-10 03:52:00,
2013-03-09 20:01:00,51.0,22.0,-100.00,SSW,202,4.0,6.0,32,0.00,,,0.00,0.000000,,2013-03-10 04:01:00,
2013-03-09 20:11:00,51.0,22.0,-100.00,SSW,202,4.0,6.0,32,0.00,,,0.00,0.000000,,2013-03-10 04:11:00,
2013-03-09 20:21:00,51.0,22.0,-100.00,SSW,202,4.0,6.0,32,0.00,,,0.00,0.000000,,2013-03-10 04:21:00,
2013-03-09 20:52:00,52.0,23.0,-100.00,South,187,3.0,8.0,32,0.00,,,0.00,0.000000,,2013-03-10 04:52:00,
2013-03-09 21:01:00,52.0,23.0,-100.00,South,187,3.0,8.0,32,0.00,,,0.00,0.000000,,2013-03-10 05:01:00,
2013-03-09 21:52:00,47.0,23.0,-100.00,NNW,329,0.0,9.0,38,0.00,,,0.00,0.000000,,2013-03-10 05:52:00,
2013-03-09 22:01:00,47.0,23.0,-100.00,NNW,329,0.0,9.0,38,0.00,,,0.00,0.000000,,2013-03-10 06:01:00,
2013-03-09 22:11:00,47.0,23.0,-100.00,NNW,329,0.0,9.0,38,0.00,,,0.00,0.000000,,2013-03-10 06:11:00,
2013-03-09 22:21:00,47.0,23.0,-100.00,NNW,329,0.0,9.0,38,0.00,,,0.00,0.000000,,2013-03-10 06:21:00,
2013-03-09 22:52:00,46.0,22.0,-100.00,North,9,4.0,6.0,38,0.00,,,0.00,0.000000,,2013-03-10 06:52:00,
2013-03-09 23:01:00,46.0,22.0,-100.00,North,9,4.0,6.0,38,0.00,,,0.00,0.000000,,2013-03-10 07:01:00,
2013-03-09 23:11:00,46.0,22.0,-100.00,North,9,4.0,6.0,38,0.00,,,0.00,0.000000,,2013-03-10 07:11:00,
2013-03-09 23:21:00,46.0,22.0,-100.00,North,9,4.0,6.0,38,0.00,,,0.00,0.000000,,2013-03-10 07:21:00,
2013-03-09 23:52:00,40.0,22.0,-100.00,East,86,0.0,8.0,49,0.00,,,0.00,0.000000,,2013-03-10 07:52:00,